Wind_Speed
8 8 7 7 7 8 8 9 9 9 12 14 14 13 13 12 12 13 14 15 16 14 15 16 16 17 16 15 15 15 15 15 15 15 15 15 15 15 15 15 14 14 13 13
10 9 8 8 8 10 12 12 10 10 13 14 14 14 14 13 13 14 15 16 15 15 15 16 17 16 15 14 15 16 16 16 16 16 16 16 15 15 15 15 14 13 13 13
11 9 9 11 11 12 12 11 10 11 13 14 13 14 15 14 13 14 15 16 16 15 15 16 16 16 15 15 15 15 15 15 15 15 15 15 15 14 15 14 13 12 12 12
12 12 12 12 13 14 13 12 12 12 13 14 13 14 14 15 13 14 15 16 16 15 14 15 15 15 15 14 15 15 14 15 15 15 14 14 14 14 13 13 12 12 11 11
13 13 14 14 14 14 13 13 12 12 14 15 13 15 14 13 14 14 14 16 16 14 13 14 15 15 14 13 13 13 14 14 13 13 14 13 13 13 13 13 12 12 12 11
14 13 15 15 15 15 13 13 13 13 13 16 15 15 15 15 14 16 16 16 16 14 14 13 14 15 14 13 13 13 13 13 14 14 14 14 13 13 13 12 12 12 13 12
15 15 15 14 14 14 14 14 13 13 15 17 15 16 17 17 16 16 16 16 16 15 14 14 14 14 14 13 13 12 13 13 13 12 13 13 13 13 12 12 12 12 12 12
16 17 15 15 16 15 14 14 14 14 15 16 14 16 16 17 18 18 16 15 16 15 14 14 15 15 14 13 13 13 12 12 12 12 12 12 12 12 12 13 12 12 12 12
16 16 16 17 17 16 15 15 14 15 16 18 16 16 16 20 18 18 17 16 17 16 15 15 15 15 15 15 15 14 14 14 14 13 13 13 13 14 13 13 13 13 13 13
18 17 17 17 17 16 16 16 17 18 18 17 16 17 18 19 18 17 16 18 18 18 18 17 16 16 16 16 16 16 16 15 15 15 15 14 14 14 14 14 14 14 14 14
20 19 18 17 18 17 17 17 18 18 18 18 19 20 21 20 20 19 17 17 19 19 19 18 17 17 17 17 17 18 18 17 17 17 16 16 16 16 16 15 14 14 15 15
22 22 21 20 18 18 18 19 19 19 19 19 20 21 20 20 20 20 19 19 20 20 19 19 19 18 18 17 17 18 18 18 18 18 17 17 18 18 17 17 17 16 16 16
23 23 22 21 19 20 20 20 21 21 21 21 21 22 19 20 21 20 19 20 21 20 20 21 21 20 19 19 19 18 18 18 18 19 18 18 18 18 18 18 17 17 17 17
24 25 24 23 22 22 23 22 21 22 23 22 22 22 20 20 21 21 21 21 21 22 22 21 22 21 20 19 20 19 19 19 19 19 19 19 19 19 18 18 18 18 17 17
26 26 26 25 25 25 25 24 23 22 24 24 24 24 23 21 21 21 22 22 23 23 23 23 23 23 22 21 20 20 20 20 20 19 20 19 19 20 19 19 19 19 19 18
27 26 26 26 25 25 25 25 25 25 25 26 26 28 26 23 23 23 24 24 25 24 23 24 24 23 22 22 21 21 20 20 21 21 20 20 19 20 20 20 20 20 20 20
29 28 28 27 26 26 27 25 25 26 27 27 28 28 26 25 24 24 24 25 26 25 25 25 24 24 23 22 21 21 21 20 21 21 21 21 21 21 21 21 22 21 21 21
30 29 29 28 28 29 27 26 26 27 28 28 29 28 27 26 25 26 26 26 26 27 27 25 25 25 24 23 23 22 22 22 22 22 21 21 22 22 22 23 23 22 22 22
32 31 30 29 30 30 29 28 27 28 30 30 30 30 29 28 28 27 27 28 28 28 27 26 25 24 24 24 23 23 23 23 23 23 23 23 23 23 23 23 23 23 22 23
32 32 32 31 31 31 30 30 29 29 31 29 29 30 29 28 28 28 28 28 28 28 27 26 25 24 24 24 24 24 24 24 24 24 23 24 24 25 24 24 24 24 23 23
32 32 32 32 32 32 31 31 29 30 30 30 30 30 30 30 30 30 30 29 29 29 28 27 26 25 25 25 25 25 25 24 24 24 25 25 25 26 26 26 26 25 24 24
32 32 33 33 32 33 32 31 32 31 29 30 31 31 31 31 31 31 30 30 30 30 29 28 28 27 26 25 25 25 25 25 25 25 26 26 26 26 27 28 27 27 26 25
31 32 33 33 33 32 32 32 32 31 30 31 30 31 32 32 31 31 30 30 30 29 29 29 29 28 27 26 25 25 26 26 26 26 27 27 27 27 28 28 27 26 26 26
29 31 31 32 33 33 32 32 32 33 33 32 32 33 32 32 32 31 31 30 30 29 29 29 29 29 28 27 26 26 25 26 25 26 27 27 28 27 27 28 27 26 27 27
27 28 30 31 31 32 31 31 31 32 32 32 32 32 32 33 33 33 33 32 31 30 30 29 30 29 29 28 28 27 26 26 27 26 26 27 27 28 28 28 28 27 27 27
26 26 27 28 29 31 32 32 32 31 30 29 30 31 32 32 33 33 33 33 32 31 30 30 30 30 30 30 29 28 27 27 26 26 25 26 26 27 28 28 27 26 26 27
Wind_Direction
236 241 247 249 251 256 262 272 278 281 280 283 287 285 280 276 278 282 283 287 287 289 285 285 286 282 281 281 280 278 275 274 270 272 273 272 271 267 266 267 267 265 268 270
246 247 250 253 253 247 250 254 261 272 276 280 284 285 284 284 281 278 277 281 285 289 289 289 289 287 286 286 284 279 274 274 272 271 271 268 267 268 266 264 263 266 266 265
247 253 253 254 254 254 259 264 266 264 269 275 284 286 286 288 286 281 282 284 285 290 293 291 290 290 288 287 284 280 276 273 272 272 268 266 266 268 269 265 261 261 260 261
241 244 246 247 251 257 257 261 260 262 268 272 277 277 278 287 288 287 285 282 285 289 295 294 292 293 291 289 284 279 278 276 272 271 268 265 265 266 265 261 259 258 258 261
245 245 248 247 252 258 259 258 259 262 266 269 274 279 280 280 286 289 290 289 290 291 294 295 294 292 291 288 285 282 278 276 276 274 269 265 264 265 263 260 258 259 260 260
241 243 250 251 251 255 256 259 261 267 268 269 274 273 274 274 275 287 292 290 291 290 292 293 291 292 291 290 288 287 281 277 275 273 270 266 264 264 265 262 261 259 257 258
252 246 245 251 255 258 258 259 260 268 267 270 271 273 274 277 279 283 287 289 289 291 290 288 289 291 291 290 289 286 283 278 276 275 272 267 265 265 264 262 263 262 262 258
254 252 247 248 248 253 256 255 257 265 272 281 279 275 277 280 280 280 281 283 286 290 289 288 287 289 290 292 291 287 281 276 273 273 273 269 267 266 265 265 264 263 263 258
251 255 250 251 248 247 248 249 253 261 267 273 272 272 271 280 275 274 279 283 286 289 290 287 288 286 288 290 288 287 284 278 273 270 268 267 267 267 267 267 264 261 261 259
249 251 249 253 251 247 248 249 251 255 263 270 275 274 278 278 283 280 279 285 290 289 287 287 287 285 285 287 284 284 284 278 273 270 266 265 265 267 269 269 264 262 262 262
252 250 249 250 252 251 249 246 253 259 261 263 267 270 276 277 278 278 278 280 285 287 285 285 286 286 287 285 285 282 280 277 272 269 265 263 264 265 267 270 265 264 264 264
250 251 251 248 251 253 254 252 252 252 256 262 266 267 274 277 277 275 276 278 282 283 285 285 283 283 283 284 287 284 280 276 272 269 265 264 263 262 264 266 266 265 263 262
249 250 254 256 254 254 252 249 250 253 256 260 261 265 272 277 278 275 274 275 278 281 283 284 283 282 280 281 284 283 281 278 275 270 268 265 263 261 263 264 263 264 264 263
250 250 252 255 256 258 256 253 253 254 258 259 261 264 270 273 277 276 276 276 275 277 280 281 281 281 281 283 282 280 276 277 276 271 268 263 262 261 260 261 262 265 266 265
250 251 253 255 256 256 259 257 256 257 262 265 266 266 266 269 276 277 275 275 279 278 277 279 280 280 280 282 282 280 277 275 274 272 268 264 259 257 257 258 260 262 263 263
251 252 254 255 255 258 261 260 258 259 262 265 265 268 267 266 271 272 271 272 275 276 278 279 280 279 279 279 279 279 278 276 274 271 269 264 261 257 256 257 258 259 261 261
256 256 256 256 256 257 259 262 262 263 262 264 266 269 271 268 268 270 271 271 273 275 276 279 279 278 276 275 275 275 277 277 275 271 268 265 263 260 258 258 258 260 261 261
257 258 259 259 258 257 258 261 263 267 266 264 268 270 271 269 270 270 272 272 273 275 275 277 277 275 272 271 270 271 272 273 273 271 267 266 264 263 262 260 259 259 260 260
256 256 257 257 258 258 259 259 258 260 261 261 263 266 270 270 270 270 270 272 273 274 276 277 275 273 270 269 270 271 270 271 271 269 265 263 263 263 263 263 263 262 261 261
256 256 256 256 257 257 259 260 259 261 261 262 263 264 268 269 269 270 270 270 271 273 275 275 275 273 269 268 268 269 270 270 269 267 265 263 262 263 263 262 263 263 261 262
255 256 254 256 257 257 258 260 261 259 261 262 263 265 267 267 267 269 270 269 270 271 272 273 273 272 271 270 269 268 270 270 267 267 265 263 262 262 263 263 263 264 263 262
253 253 253 253 254 254 255 257 259 261 262 263 263 264 265 266 268 269 269 271 271 271 270 271 271 272 272 271 269 268 268 269 267 265 266 266 264 263 263 262 262 262 263 263
253 253 251 251 251 254 253 255 258 259 260 262 263 266 265 266 268 270 270 271 271 271 270 270 269 269 270 270 270 269 268 268 267 265 265 265 265 264 263 262 260 259 260 261
253 254 253 251 254 256 256 256 258 258 258 262 262 263 264 265 266 268 270 270 269 269 268 268 268 268 267 268 269 269 268 268 269 266 265 265 263 262 262 260 258 259 260 260
254 254 254 254 254 256 257 258 258 258 260 262 261 262 265 267 267 267 267 268 269 269 268 268 269 267 265 266 267 267 268 269 270 270 267 265 264 261 261 260 258 258 258 258
254 256 255 255 255 256 257 260 262 260 260 262 263 264 267 269 268 268 267 267 267 268 267 267 268 266 265 265 265 266 268 268 268 268 268 265 264 263 262 259 258 257 257 257
Height
5851 5853 5855 5856 5858 5859 5859 5860 5861 5860 5860 5860 5859 5858 5856 5855 5854 5854 5852 5851 5850 5849 5849 5847 5846 5845 5846 5846 5845 5845 5845 5846 5846 5846 5847 5847 5847 5847 5847 5848 5848 5849 5850 5851
5850 5852 5854 5854 5856 5857 5857 5858 5859 5860 5859 5858 5857 5856 5854 5853 5852 5851 5849 5848 5847 5846 5846 5844 5843 5843 5843 5842 5842 5843 5842 5842 5843 5843 5843 5843 5844 5844 5845 5845 5846 5846 5847 5848
5848 5852 5852 5852 5854 5854 5855 5855 5856 5857 5856 5855 5854 5853 5852 5850 5849 5848 5846 5845 5844 5844 5843 5842 5840 5840 5840 5839 5839 5840 5839 5839 5840 5840 5840 5840 5841 5841 5842 5842 5842 5844 5845 5846
5846 5849 5850 5850 5851 5852 5852 5853 5853 5853 5853 5852 5852 5850 5849 5847 5845 5845 5843 5842 5841 5840 5840 5838 5838 5837 5837 5836 5836 5836 5836 5836 5836 5837 5837 5837 5838 5838 5839 5839 5839 5841 5842 5843
5843 5845 5846 5847 5849 5849 5849 5849 5849 5849 5849 5847 5847 5847 5846 5843 5842 5841 5840 5839 5838 5837 5837 5836 5835 5834 5834 5833 5833 5833 5833 5833 5833 5833 5834 5834 5834 5835 5836 5836 5837 5838 5839 5840
5840 5841 5843 5844 5845 5845 5845 5846 5846 5845 5845 5844 5843 5843 5842 5839 5839 5839 5838 5837 5836 5834 5834 5833 5833 5832 5831 5830 5830 5830 5830 5830 5831 5831 5831 5831 5831 5832 5833 5833 5835 5835 5836 5837
5836 5837 5838 5840 5841 5842 5842 5843 5843 5842 5842 5840 5840 5840 5839 5837 5836 5836 5835 5834 5833 5832 5831 5830 5830 5829 5828 5828 5828 5828 5828 5828 5828 5828 5828 5828 5829 5829 5830 5831 5832 5832 5833 5834
5833 5834 5835 5836 5837 5838 5838 5839 5840 5840 5839 5837 5837 5836 5835 5834 5833 5832 5831 5831 5830 5829 5828 5827 5827 5827 5826 5826 5825 5825 5825 5825 5825 5825 5825 5826 5826 5827 5827 5828 5829 5829 5830 5831
5829 5830 5831 5832 5832 5834 5834 5835 5837 5837 5835 5834 5834 5832 5830 5829 5828 5828 5828 5828 5826 5826 5825 5824 5824 5823 5823 5823 5822 5821 5821 5821 5822 5822 5822 5823 5823 5824 5824 5825 5825 5826 5828 5828
5824 5825 5826 5827 5828 5829 5831 5831 5832 5831 5830 5830 5830 5829 5825 5824 5824 5824 5824 5824 5822 5822 5822 5821 5820 5820 5819 5819 5818 5818 5817 5817 5818 5818 5818 5819 5820 5821 5821 5822 5822 5823 5824 5825
5820 5820 5821 5822 5823 5824 5826 5827 5827 5827 5827 5827 5826 5827 5822 5820 5820 5820 5819 5819 5819 5818 5817 5817 5817 5816 5815 5814 5814 5813 5813 5813 5813 5813 5814 5815 5816 5817 5818 5818 5819 5819 5820 5821
5814 5814 5815 5817 5818 5819 5820 5821 5822 5822 5821 5822 5821 5822 5817 5816 5815 5815 5815 5814 5815 5814 5813 5813 5812 5812 5811 5810 5809 5808 5807 5807 5807 5808 5809 5810 5811 5813 5813 5814 5815 5816 5817 5818
5808 5809 5810 5811 5814 5814 5814 5814 5815 5816 5816 5816 5816 5816 5812 5810 5810 5810 5810 5809 5809 5809 5809 5808 5807 5806 5806 5805 5804 5803 5803 5802 5802 5803 5804 5805 5806 5808 5809 5810 5811 5812 5812 5814
5802 5803 5805 5806 5806 5807 5807 5808 5808 5809 5809 5809 5809 5808 5807 5805 5806 5806 5805 5804 5804 5804 5804 5803 5802 5801 5800 5800 5799 5799 5798 5798 5798 5798 5799 5800 5801 5802 5804 5805 5806 5807 5808 5809
5795 5796 5798 5799 5800 5801 5802 5802 5802 5803 5803 5803 5803 5802 5801 5800 5801 5800 5800 5799 5798 5797 5797 5797 5797 5796 5795 5795 5794 5794 5794 5793 5793 5793 5794 5794 5795 5797 5798 5800 5801 5802 5803 5804
5788 5790 5791 5792 5794 5794 5794 5794 5795 5796 5796 5796 5796 5796 5794 5794 5795 5794 5794 5793 5793 5792 5792 5792 5791 5790 5790 5789 5789 5789 5788 5788 5788 5788 5788 5789 5790 5791 5793 5794 5795 5797 5798 5799
5781 5783 5784 5785 5787 5787 5787 5788 5788 5789 5789 5789 5788 5789 5788 5788 5788 5788 5787 5787 5787 5786 5786 5786 5785 5784 5784 5784 5784 5784 5783 5783 5783 5783 5783 5784 5784 5785 5786 5788 5789 5791 5792 5794
5774 5775 5776 5777 5779 5778 5782 5782 5782 5782 5782 5782 5781 5781 5780 5781 5781 5781 5781 5780 5780 5779 5779 5779 5779 5778 5778 5778 5778 5778 5778 5778 5777 5777 5778 5779 5779 5779 5780 5782 5783 5785 5786 5787
5765 5767 5768 5770 5770 5771 5773 5774 5774 5774 5773 5774 5774 5774 5774 5774 5773 5774 5774 5773 5773 5773 5773 5772 5771 5771 5771 5771 5771 5771 5772 5771 5771 5771 5772 5773 5773 5774 5775 5776 5777 5778 5779 5781
5756 5758 5760 5761 5762 5763 5765 5765 5765 5765 5764 5766 5766 5766 5767 5766 5766 5766 5766 5765 5765 5765 5765 5765 5764 5764 5764 5764 5764 5765 5765 5765 5765 5765 5765 5766 5767 5768 5769 5770 5771 5772 5773 5774
5747 5748 5750 5752 5753 5753 5756 5756 5757 5758 5757 5758 5757 5757 5758 5758 5757 5758 5757 5758 5758 5758 5758 5757 5757 5756 5757 5757 5757 5757 5758 5758 5758 5758 5759 5760 5760 5761 5762 5763 5764 5765 5766 5767
5738 5740 5740 5742 5743 5746 5746 5747 5748 5748 5748 5749 5749 5749 5749 5750 5750 5749 5749 5749 5750 5749 5750 5750 5750 5750 5750 5750 5750 5750 5750 5750 5750 5751 5751 5752 5753 5754 5755 5756 5757 5758 5759 5760
5728 5730 5731 5733 5734 5734 5735 5737 5738 5739 5740 5740 5740 5740 5740 5741 5741 5741 5741 5741 5741 5741 5742 5742 5742 5742 5742 5742 5743 5743 5743 5743 5743 5743 5744 5745 5745 5746 5747 5748 5749 5751 5752 5754
5719 5719 5721 5723 5724 5726 5727 5728 5729 5730 5731 5731 5731 5731 5732 5732 5733 5733 5733 5732 5733 5733 5733 5734 5734 5734 5734 5734 5735 5735 5735 5735 5735 5735 5736 5737 5738 5739 5739 5740 5742 5743 5745 5747
5710 5711 5713 5714 5716 5716 5718 5719 5720 5721 5722 5722 5722 5722 5723 5723 5723 5724 5724 5724 5724 5725 5725 5725 5725 5726 5726 5727 5727 5727 5728 5728 5727 5728 5728 5729 5730 5730 5731 5732 5734 5736 5738 5739
5702 5703 5705 5706 5707 5708 5709 5710 5711 5712 5713 5713 5714 5714 5714 5714 5714 5714 5715 5715 5715 5716 5716 5716 5716 5717 5718 5718 5719 5719 5720 5720 5720 5720 5721 5721 5722 5723 5723 5725 5726 5728 5730 5731